Der Flugplatz Krefeld-Egelsberg
  • ICAO-Code: EDLK
  • Koordinaten: N 51° 23,10'    E 06° 35,26'
  • Höhe ü. NN: 141 ft / 43 m
  • Platzfrequenz: 120.675 MHz - Krefeld Info
  • Landebahn: 06 - 24
  • Abmessungen: 640 x 30m
  • Belag: Gras
  • Tragfähigkeit: 2000 kg MTW; HEL 5700 kg MTW
  • Tankstelle: Nein
  • Betriebszeit: PPR
  • PPR-Request: Tel: 02151/ 560133, 368400
  • Landegebühr: Private Flüge 5 €, für gewerbliche Flüge wird eine gesonderte Gebühr erhoben

 


EDLK

Wetterinformation

[Quelle: ADDS]
METAR
EDDL 260720Z 26009KT 9999 SHRA FEW009 SCT020CB BKN040 08/06 Q1015 BECMG NSW =
TAF
EDDL 260500Z 2606/2712 24013KT 9999 BKN030 PROB40 TEMPO 2606/2609 27015G25KT SHRA BKN015CB TEMPO 2609/2614 26015G25KT PROB30 TEMPO 2614/2618 26015G25KT SHRA BKN030CB BECMG 2618/2621 24006KT BECMG 2621/2624 14005KT BECMG 2709/2712 14010KT =
Lade Webcam-Bild